This is the latest recevied weather packets stored in our database for station/object WX4SGA. If no packets are shown the sender has not sent any weather packets the latest 10 day(s).
| Time | Temp. | Humidity | Pressure | Rain* | Wind** | Luminosity | Snow |
|---|---|---|---|---|---|---|---|
| 1778278573 | 22.22° C | 75% | 1014.2 hPa | 0 mm | - | 13 W/m² | - |
| 1778278269 | 22.22° C | 74% | 1014.2 hPa | 0 mm | - | 18 W/m² | - |
| 1778277965 | 22.22° C | 73% | 1014.2 hPa | 0 mm | - | 26 W/m² | - |
| 1778277661 | 22.22° C | 75% | 1014.2 hPa | 0 mm | - | 35 W/m² | - |
| 1778277359 | 22.78° C | 74% | 1014.2 hPa | 0 mm | - | 52 W/m² | - |
| 1778277055 | 22.78° C | 73% | 1014.2 hPa | 0 mm | - | 88 W/m² | - |
| 1778276753 | 22.78° C | 75% | 1014.6 hPa | 0 mm | - | 63 W/m² | - |
| 1778276449 | 22.78° C | 74% | 1014.6 hPa | 0 mm | - | 56 W/m² | - |
| 1778276146 | 22.78° C | 74% | 1014.6 hPa | 0 mm | - | 81 W/m² | - |
| 1778275842 | 22.78° C | 74% | 1014.6 hPa | 0 mm | - | 58 W/m² | - |
| 1778275539 | 22.78° C | 72% | 1014.6 hPa | 0 mm | - | 58 W/m² | - |
| 1778275235 | 22.78° C | 72% | 1014.6 hPa | 0 mm | - | 77 W/m² | - |
| 1778274931 | 22.78° C | 72% | 1014.6 hPa | 0 mm | - | 99 W/m² | - |
| 1778274627 | 22.78° C | 73% | 1014.6 hPa | 0 mm | - | 93 W/m² | - |
| 1778274324 | 23.33° C | 70% | 1014.6 hPa | 0 mm | - | 95 W/m² | - |
| 1778274022 | 23.33° C | 71% | 1014.9 hPa | 0 mm | - | 111 W/m² | - |
| 1778273718 | 23.33° C | 71% | 1014.9 hPa | 0 mm | - | 115 W/m² | - |
| 1778273414 | 23.33° C | 70% | 1014.9 hPa | 0 mm | - | 135 W/m² | - |
| 1778273112 | 23.89° C | 68% | 1014.9 hPa | 0 mm | - | 176 W/m² | - |
| 1778272807 | 23.89° C | 70% | 1015.2 hPa | 0 mm | - | 267 W/m² | - |
| 1778272498 | 23.89° C | 71% | 1015.2 hPa | 0 mm | - | 179 W/m² | - |
| 1778272194 | 23.89° C | 70% | 1015.2 hPa | 0 mm | - | 138 W/m² | - |
| 1778271891 | 23.89° C | 69% | 1015.2 hPa | 0 mm | - | 121 W/m² | - |
| 1778271588 | 23.89° C | 67% | 1015.2 hPa | 0 mm | - | 99 W/m² | - |
| 1778271284 | 23.89° C | 68% | 1015.2 hPa | 0 mm | - | 91 W/m² | - |
* Rain latest hour (hover to see other rain measurements)
** Current wind speed in m/s (hover to see current wind gust speed)